Theta_e
350 351 350 350 350 350 350 350 349 348 345 343 341 340 341 342 344 345 346 346 344 344 344 345 348 349 350 353 353 353 353 351 350 349 349 350 350 349 348 347 348 348
351 350 350 350 351 350 350 349 349 349 346 344 342 341 342 342 344 345 346 346 346 344 343 343 347 348 348 350 351 352 351 351 351 349 347 348 349 349 347 347 347 348
351 351 351 351 351 350 350 350 349 350 348 347 345 343 343 343 344 346 347 346 346 345 345 345 347 348 348 348 349 349 349 350 350 349 347 347 348 348 348 347 348 349
351 351 351 351 351 351 351 350 349 349 349 348 347 345 344 344 344 346 347 347 347 347 347 348 348 349 349 348 348 348 348 348 350 349 348 347 346 347 347 348 348 348
350 351 351 350 351 351 351 351 350 350 350 349 348 346 345 344 345 346 347 347 346 347 347 348 349 350 350 349 349 349 348 349 350 349 349 348 347 346 347 348 348 348
351 351 351 351 351 351 350 351 350 350 350 349 348 347 346 345 345 345 345 346 347 346 346 346 348 349 350 350 350 349 349 349 349 348 348 348 347 347 346 347 348 347
351 352 351 352 352 351 351 351 351 351 351 351 350 348 347 346 345 345 345 345 346 346 346 345 346 346 347 349 350 349 348 348 348 348 348 348 347 347 346 346 346 346
351 351 351 352 352 351 352 351 351 352 351 351 351 349 348 347 346 345 345 345 346 346 347 346 345 345 345 347 347 347 347 347 348 348 348 348 347 348 347 345 344 345
351 351 351 352 352 352 352 352 352 352 352 352 352 351 350 349 348 346 345 345 345 346 346 346 346 345 345 345 345 346 347 347 348 348 348 349 349 349 348 347 345 344
351 352 352 352 353 353 353 353 353 352 352 352 351 351 351 350 349 348 347 345 346 346 346 346 346 345 345 345 345 346 347 348 348 348 347 348 348 348 348 348 347 346
352 352 351 352 352 353 353 353 353 353 352 351 351 351 351 350 349 349 347 346 346 346 347 346 346 346 346 346 346 347 348 348 348 348 347 347 347 347 347 347 348 348
351 352 352 352 353 353 353 353 353 353 352 351 351 350 351 350 349 349 347 347 347 346 347 346 347 347 347 347 347 348 348 347 346 346 346 346 345 346 346 346 347 347
352 352 353 352 352 353 353 354 354 353 353 353 352 352 352 351 350 349 348 348 347 346 346 346 346 347 347 347 347 347 346 345 344 345 345 345 345 345 345 346 346 347
352 353 353 353 353 353 354 355 355 353 352 352 352 352 352 352 350 349 349 348 348 346 347 346 346 347 346 346 346 345 345 344 345 344 344 344 345 344 345 345 346 346
353 354 354 354 354 353 354 354 353 351 351 350 349 349 349 350 350 349 349 348 348 348 347 347 347 347 346 346 346 346 345 345 345 344 344 344 344 345 345 345 345 345
354 355 355 355 354 353 353 352 351 351 351 351 351 350 349 348 348 348 349 348 349 348 347 347 347 347 347 347 346 346 345 345 345 344 344 344 344 344 345 346 345 346
355 355 355 354 353 353 352 351 351 350 350 351 351 350 350 350 348 347 346 347 348 348 348 348 348 347 348 347 346 346 346 345 345 345 344 343 344 343 344 345 345 346
354 354 353 352 352 352 351 351 351 350 349 349 351 350 349 349 349 347 345 345 347 349 349 349 349 348 348 347 347 347 346 346 345 345 345 345 344 344 343 343 344 344
351 350 349 349 351 350 349 349 349 348 348 348 349 350 348 348 348 347 347 347 348 349 349 348 348 348 347 347 346 346 346 346 345 346 346 345 345 344 344 344 344 344
347 347 348 348 349 348 348 348 348 347 348 348 349 350 349 349 349 347 348 348 349 348 348 348 348 349 350 349 347 347 346 346 345 346 346 346 345 344 344 344 344 343
347 347 348 348 350 350 349 348 347 347 348 349 349 349 349 349 348 348 348 348 348 348 349 349 350 351 352 351 351 350 349 348 348 348 348 347 347 347 346 345 345 344
347 347 348 349 350 350 349 346 346 347 348 349 349 348 349 349 349 349 349 348 348 349 349 350 351 351 350 350 352 352 352 352 351 351 351 350 349 349 347 346 345 344
347 347 348 349 349 350 349 348 348 349 350 349 349 349 349 349 349 349 349 348 348 347 348 349 351 350 349 350 351 352 352 351 351 351 351 351 350 350 349 348 347 346
348 347 348 349 350 350 350 350 349 351 351 349 348 347 347 347 347 347 347 347 347 346 347 348 349 350 349 350 350 350 350 351 350 350 350 350 350 350 350 350 350 350
348 349 350 349 350 350 350 351 351 351 350 347 346 346 346 346 347 347 347 347 347 348 348 348 348 349 348 349 350 349 349 349 349 349 350 349 350 350 350 350 350 350
349 350 351 351 350 349 350 350 349 348 348 347 347 347 347 347 347 347 347 348 348 349 348 348 347 346 346 347 347 347 347 348 348 349 349 349 349 349 349 349 349 349
Wind_Speed
31 31 30 29 28 27 26 24 22 21 20 21 23 24 23 22 21 20 19 19 21 23 23 21 18 16 15 16 16 16 16 15 15 14 14 14 13 12 12 12 11 10
30 31 30 30 29 27 26 25 24 23 21 21 22 23 23 23 23 22 21 20 21 23 23 22 21 19 18 18 18 18 18 18 18 18 17 17 16 15 14 12 12 11
26 29 30 30 30 28 27 26 24 24 23 22 21 21 22 23 24 24 22 22 22 23 24 24 23 22 21 20 19 19 19 19 19 19 19 19 19 18 17 14 13 11
25 27 28 29 30 29 28 27 25 25 24 24 23 22 21 22 24 25 24 23 23 23 24 25 24 24 22 21 21 20 20 20 20 19 19 20 20 20 20 18 16 15
28 28 28 28 28 28 28 27 26 25 24 24 24 23 22 22 23 24 24 24 24 24 24 25 26 25 24 22 22 22 21 21 21 20 20 21 21 21 22 21 20 18
29 30 29 28 27 27 27 27 26 25 24 24 24 24 23 22 21 21 22 24 24 24 24 25 26 26 25 24 23 23 22 22 22 21 21 21 21 22 22 23 23 22
29 29 27 27 27 26 26 26 25 25 24 23 23 24 24 23 22 20 20 22 24 25 25 25 25 25 25 25 24 24 23 23 22 21 21 22 22 22 23 23 24 24
28 27 26 26 26 26 26 26 26 25 24 24 24 25 25 24 23 22 20 21 22 24 24 24 25 25 25 25 25 25 24 24 23 22 22 22 23 23 23 23 24 25
27 26 25 25 24 25 25 25 26 26 25 25 26 26 26 26 25 23 22 21 21 22 23 24 24 24 25 25 26 25 25 25 24 23 24 24 24 25 24 23 24 25
25 24 24 24 23 24 24 25 26 26 25 26 26 26 27 27 27 25 24 22 21 22 23 23 24 24 25 26 26 26 26 25 25 25 26 26 26 26 25 25 25 25
23 23 23 23 23 23 23 23 24 25 25 24 25 25 26 27 27 28 27 26 24 22 23 24 24 24 25 25 26 26 26 26 26 26 27 28 28 28 28 27 27 27
22 22 23 24 23 23 23 22 23 24 24 23 23 24 24 25 26 27 28 29 27 24 22 23 23 23 23 24 25 26 26 26 26 27 28 29 29 29 29 29 28 28
22 22 21 20 21 21 22 22 23 24 24 23 22 22 22 23 24 25 27 28 28 26 24 22 22 22 22 23 24 24 24 24 24 26 27 29 29 30 30 30 30 30
21 19 18 19 21 23 24 24 23 23 20 18 18 19 20 21 22 23 24 25 26 27 26 24 22 22 22 22 23 22 22 23 24 26 28 29 30 30 30 31 31 31
18 17 17 20 22 21 19 17 14 13 14 14 14 16 18 20 21 22 23 23 24 24 24 24 23 23 22 21 21 21 20 21 23 25 27 27 29 30 31 32 33 33
16 15 15 16 16 15 14 11 10 11 13 13 13 14 16 18 19 21 22 22 22 22 21 21 21 21 20 19 18 17 17 17 18 18 19 20 22 25 28 30 31 32
16 15 14 14 14 14 14 14 14 14 11 9 11 13 15 16 17 19 20 20 20 20 20 20 20 20 20 19 18 16 15 14 14 16 19 21 22 23 25 28 29 30
15 15 16 16 15 14 13 13 15 14 10 9 11 13 14 15 16 18 21 21 19 18 19 19 20 21 21 20 18 16 15 13 14 18 22 25 26 26 27 29 30 30
13 14 14 14 13 11 9 10 12 13 11 11 11 11 14 16 16 18 21 21 19 19 19 20 21 21 20 19 19 19 19 19 20 21 23 25 26 26 26 28 30 30
12 12 11 10 8 7 6 8 10 11 11 10 10 11 12 14 16 19 21 20 18 18 18 19 19 16 14 14 16 18 20 23 25 26 27 28 29 29 29 30 31 32
11 11 9 8 7 7 7 7 8 9 9 10 12 13 13 14 16 18 19 18 16 16 16 17 16 11 8 8 11 14 18 22 24 24 25 26 28 30 31 32 33 33
11 9 8 7 6 6 7 6 6 6 6 8 11 13 15 16 17 17 17 17 16 15 15 16 14 10 8 10 14 17 19 21 21 21 22 23 24 26 28 30 31 32
10 8 7 7 7 8 9 8 8 8 8 9 13 15 16 16 16 16 16 16 15 15 14 14 13 9 7 10 14 17 17 17 18 19 21 23 23 24 26 28 29 29
8 7 6 7 9 10 10 9 8 8 8 9 12 13 13 12 12 11 12 12 12 11 10 10 9 6 4 6 10 12 14 14 15 16 19 21 22 23 24 26 26 27
6 5 4 5 7 9 9 8 7 6 6 7 9 9 9 8 7 7 6 6 5 5 4 4 4 3 2 4 7 10 13 13 13 14 16 18 19 20 20 21 21 22
6 4 4 4 5 5 5 5 5 5 5 5 6 6 6 5 4 4 4 3 3 4 4 4 4 3 3 5 7 10 11 11 11 13 14 15 16 17 19 19 19 20
Wind_Direction
221 222 224 225 227 228 227 226 226 227 229 229 229 232 233 233 232 232 232 232 231 231 232 233 234 237 241 243 245 247 249 254 261 268 269 266 266 268 268 268 268 267
223 222 224 226 228 229 228 227 227 227 229 230 231 233 233 234 234 234 234 234 233 231 231 232 232 234 238 242 246 249 254 259 264 267 268 265 265 266 268 272 272 269
228 224 223 225 228 229 228 228 229 230 232 232 232 233 233 235 236 236 236 236 235 233 232 232 233 234 238 241 245 250 255 260 264 268 268 265 264 265 266 270 270 267
227 227 225 226 228 230 231 230 230 232 232 232 232 232 233 235 237 238 238 237 236 235 235 236 237 237 240 242 244 249 255 260 264 268 268 265 264 264 264 265 267 267
224 225 226 227 229 230 231 232 233 233 232 232 231 231 231 233 236 238 239 238 237 237 238 239 240 241 242 243 245 250 255 258 262 266 268 267 265 264 264 263 264 266
223 224 224 226 228 230 231 232 233 234 233 233 231 228 228 230 232 234 236 238 238 238 239 240 242 243 244 247 250 253 256 258 261 265 267 267 267 266 264 263 262 263
222 224 225 226 227 228 230 232 233 233 233 232 229 227 227 228 230 231 234 237 239 239 239 241 243 245 246 248 251 254 256 258 261 263 265 266 268 267 265 264 262 262
225 226 228 228 226 226 229 231 232 232 232 231 229 228 228 228 230 231 234 237 240 241 239 240 243 245 246 247 250 253 255 258 261 263 263 265 266 267 266 263 262 262
227 228 229 230 228 227 228 231 233 233 233 232 231 230 229 230 231 232 234 237 240 242 241 240 242 244 247 248 250 253 255 259 263 265 265 266 267 268 268 265 263 263
228 227 228 231 232 232 232 234 235 234 233 233 233 232 231 231 233 233 234 237 239 241 241 241 241 244 247 250 252 254 256 260 264 267 268 269 270 271 271 269 266 265
230 231 233 234 235 236 237 236 235 234 234 234 232 232 232 233 234 234 234 235 237 239 240 240 241 243 247 249 251 254 257 262 267 269 270 271 272 273 272 271 269 268
235 238 239 238 239 241 242 240 238 235 235 235 234 234 233 233 234 233 233 233 235 237 238 238 239 241 244 246 250 255 261 266 270 271 272 272 273 273 273 271 270 271
240 243 243 244 247 250 249 246 243 241 239 238 237 236 235 234 233 232 232 231 233 236 237 239 240 242 244 247 251 256 262 267 271 274 274 274 273 274 273 271 270 270
242 244 244 247 251 253 254 252 248 247 246 245 244 243 242 239 234 231 231 232 234 236 238 241 244 246 248 250 253 257 262 269 274 276 275 274 273 273 273 272 271 270
244 245 246 252 255 256 259 263 265 263 262 263 262 257 255 252 244 236 233 233 234 236 238 241 244 248 251 255 259 263 269 274 277 278 277 275 274 275 273 272 271 271
244 245 249 257 261 262 266 276 286 280 269 267 269 266 262 260 255 247 238 234 234 235 238 241 244 249 253 255 258 262 268 274 278 280 280 280 281 283 281 277 275 273
241 247 254 259 262 265 268 270 272 273 270 263 261 263 263 263 263 259 250 242 238 237 239 241 244 247 249 251 253 255 261 267 270 269 270 272 276 280 281 279 277 276
248 254 257 257 256 257 259 260 261 262 260 254 254 257 258 257 259 259 256 250 246 245 246 247 248 249 250 253 255 254 254 257 260 263 266 267 269 273 275 275 275 276
251 254 253 251 248 247 248 254 257 256 252 250 250 250 251 251 254 257 257 255 252 252 253 253 254 257 258 259 258 254 253 255 259 263 265 265 266 268 270 269 269 271
249 249 249 251 249 246 250 254 255 255 255 258 260 261 263 262 260 258 257 255 254 253 254 256 257 260 260 257 256 255 255 258 261 263 264 264 265 265 265 262 260 262
247 245 244 250 251 249 246 239 241 252 266 282 287 282 275 265 256 252 252 254 255 255 257 260 260 258 249 246 251 254 255 256 259 260 262 264 264 264 263 262 259 259
247 244 240 248 257 258 248 228 223 238 257 275 275 266 259 254 253 255 258 261 262 262 264 265 263 257 248 252 258 257 257 258 259 259 262 266 267 265 261 260 258 257
238 230 229 241 253 258 259 252 245 243 245 249 252 252 252 256 260 265 266 266 267 267 268 268 265 262 254 256 261 262 263 266 264 261 262 265 267 267 263 261 259 258
221 223 237 252 260 265 271 275 267 258 256 254 253 255 257 258 262 263 261 262 265 266 269 270 270 268 254 255 261 261 264 269 269 265 263 265 268 269 267 266 266 267
218 228 245 253 260 268 279 287 283 270 263 254 250 255 258 256 256 258 258 258 258 263 273 277 274 256 226 249 261 260 261 267 272 271 269 271 277 279 279 279 278 279
205 199 210 227 240 254 270 280 277 262 253 250 250 255 257 253 253 264 278 280 277 279 283 284 283 270 244 248 256 259 262 266 269 273 276 280 285 288 289 291 293 293